This is the latest recevied weather packets stored in our database for station/object YO8PIC-5. If no packets are shown the sender has not sent any weather packets the latest 10 day(s).
| Time | Temp. | Humidity | Pressure | Rain* | Wind** | Luminosity | Snow |
|---|---|---|---|---|---|---|---|
| 1777467411 | 10.56° C | 26% | 1020.8 hPa | - | - | - | - |
| 1777466510 | 10° C | 26% | 1020.9 hPa | - | - | - | - |
| 1777465614 | 10° C | 29% | 1020.8 hPa | - | - | - | - |
| 1777464714 | 11.11° C | 28% | 1021 hPa | - | - | - | - |
| 1777463814 | 10.56° C | 26% | 1021 hPa | - | - | - | - |
| 1777462914 | 12.22° C | 26% | 1021.1 hPa | - | - | - | - |
| 1777462013 | 11.67° C | 24% | 1021.1 hPa | - | - | - | - |
| 1777461113 | 10.56° C | 26% | 1021.1 hPa | - | - | - | - |
| 1777460213 | 11.67° C | 22% | 1021.1 hPa | - | - | - | - |
| 1777459313 | 11.67° C | 23% | 1021.1 hPa | - | - | - | - |
| 1777458413 | 11.67° C | 24% | 1021.2 hPa | - | - | - | - |
| 1777457512 | 11.11° C | 21% | 1021.2 hPa | - | - | - | - |
| 1777456612 | 11.67° C | 23% | 1021.2 hPa | - | - | - | - |
| 1777455712 | 13.33° C | 22% | 1021.2 hPa | - | - | - | - |
| 1777454812 | 11.11° C | 26% | 1021.3 hPa | - | - | - | - |
| 1777453911 | 11.11° C | 23% | 1021.3 hPa | - | - | - | - |
| 1777453011 | 10.56° C | 23% | 1021.3 hPa | - | - | - | - |
| 1777452111 | 10° C | 24% | 1021.4 hPa | - | - | - | - |
| 1777451211 | 10° C | 25% | 1021.3 hPa | - | - | - | - |
| 1777450311 | 9.44° C | 26% | 1021.4 hPa | - | - | - | - |
| 1777449410 | 10° C | 28% | 1021.3 hPa | - | - | - | - |
| 1777448510 | 10° C | 31% | 1021.5 hPa | - | - | - | - |
| 1777447610 | 8.89° C | 31% | 1021.3 hPa | - | - | - | - |
| 1777446710 | 8.89° C | 34% | 1021.3 hPa | - | - | - | - |
| 1777445809 | 8.89° C | 33% | 1021.2 hPa | - | - | - | - |
* Rain since midnight (hover to see other rain measurements)
** Current wind speed in m/s (hover to see current wind gust speed)